Flag for Burundi Weather past 2 weeks in Muyinga, Burundi

Now
66 °F

Passing clouds.


Feels Like: 66 °F
Forecast: 59 / 81 °F
Wind: 6 mph from North

Location: Kigali Airport

Current Time: Aug 28, 2014 at 3:07:54 AM

Latest Report: Aug 28, 2014 at 2:30 AM


Visibility: N/A

Pressure: 30.07 "Hg

Humidity: 88%

Dew point: 63 °F

Location of MuyingaLocation

Historic Weather in Muyinga — Graph

°F

Muyinga temperature yesterday

Maximum temperature yesterday: 82 °F (at 2:00 PM)
Minimum temperature yesterday: 63 °F (at 5:00 AM)
Average temperature yesterday: 71 °F

Past Weeks' High & Low Weather Summary

 TemperatureHumidityPressure
High88 °F (Aug 23, 3:00 PM)100% (Aug 13, 2:00 AM)30.24 "Hg (Aug 13, 2:00 AM)
Low61 °F (Aug 14, 3:30 AM)29% (Aug 23, 4:00 PM)29.95 "Hg (Aug 23, 4:00 PM)
Average71 °F74%30.14 "Hg
* Reported Aug 13 2:00 AM — Aug 28 2:00 AM, Muyinga, Weather by CustomWeather, © 2014

Note: Actual official high and low records may vary slightly from our data, if they occured in-between our weather recording intervals... More about our weather records

Advertising

Muyinga weather history for previous 24 hours

 ConditionsComfort  
Time TempWeatherWind HumidityBarometerVisibility
2:00 AM
Aug 28
66 °FPassing clouds.5 mph88%30.07 "HgN/A
1:30 AM68 °FPassing clouds.6 mph83%30.07 "HgN/A
12:30 AM70 °FPassing clouds.5 mph78%30.09 "HgN/A
12:00 AM70 °FPassing clouds.6 mph78%30.09 "HgN/A
11:30 PM
Aug 27
70 °FPassing clouds.6 mph83%30.09 "HgN/A
11:00 PM70 °FPassing clouds.3 mph78%30.09 "HgN/A
10:30 PM72 °FPassing clouds.3 mph73%30.09 "HgN/A
8:30 PM73 °FPassing clouds.9 mph69%30.07 "HgN/A
8:00 PM75 °FPassing clouds.14 mph69%30.07 "HgN/A
7:30 PM77 °FPassing clouds.No wind54%30.04 "HgN/A
7:00 PM77 °FPassing clouds.No wind54%30.04 "HgN/A
5:00 PM82 °FScattered clouds.3 mph48%30.01 "HgN/A
4:00 PM82 °FScattered clouds.7 mph48%30.01 "HgN/A
3:00 PM82 °FPartly sunny.5 mph48%30.04 "HgN/A
2:00 PM82 °FPartly sunny.5 mph51%30.07 "HgN/A
1:30 PM81 °FPartly sunny.6 mph54%30.09 "HgN/A
1:00 PM81 °FPartly sunny.5 mph54%30.09 "HgN/A
12:30 PM79 °FPartly sunny.6 mph58%30.12 "HgN/A
12:00 PM79 °FPartly sunny.8 mph58%30.12 "HgN/A
11:30 AM79 °FScattered clouds.7 mph58%30.15 "HgN/A
11:00 AM77 °FScattered clouds.5 mph69%30.18 "HgN/A
10:30 AM77 °FPassing clouds.No wind69%30.18 "HgN/A
10:00 AM77 °FPassing clouds.No wind65%30.18 "HgN/A
9:30 AM72 °FScattered clouds.No wind78%30.18 "HgN/A
9:00 AM70 °FScattered clouds.No wind83%30.18 "HgN/A
8:00 AM68 °FPassing clouds.No wind88%30.18 "Hg5 mi
7:30 AM66 °FPassing clouds.No wind94%30.18 "Hg5 mi
7:00 AM63 °FPassing clouds.No wind100%30.15 "Hg5 mi
6:30 AM63 °FPassing clouds.No wind100%30.12 "HgN/A
6:00 AM63 °FPassing clouds.No wind94%30.12 "HgN/A
5:30 AM63 °FPassing clouds.No wind94%30.12 "HgN/A
5:00 AM63 °FPassing clouds.3 mph100%30.12 "HgN/A
4:30 AM64 °FPartly cloudy.3 mph94%30.12 "HgN/A
4:00 AM64 °FPartly cloudy.5 mph94%30.12 "HgN/A
3:30 AM64 °FPassing clouds.5 mph94%30.12 "HgN/A
3:00 AM64 °FPassing clouds.3 mph94%30.12 "HgN/A
Weather by CustomWeather, © 2014

See weather overviewHow to use our weather pages